owner,sensor,date,latitude,longitude,vertical_datum,wind_speed,wind_to_direction,wind_speed_of_gust,qcFlag 
TABS,ioos:station:wmo:42045:1,2017-12-01T00:00:00Z,26.2168,-96.4998,4.0,6.435293311,84.91801235,7.75,'11111222,11111222,11111222' 
TABS,ioos:station:wmo:42045:1,2017-12-01T00:30:00Z,26.2168,-96.4998,4.0,6.112454499,86.34139385,7.78,'11111222,11111222,11111222' 
TABS,ioos:station:wmo:42045:1,2017-12-01T01:00:00Z,26.2168,-96.4998,4.0,5.750217387,89.50136864,7.34,'11111222,11111222,11111222' 
TABS,ioos:station:wmo:42045:1,2017-12-01T01:30:00Z,26.2168,-96.4998,4.0,6.280199041,90.4565868,7.9,'11111222,11111222,11111222' 
TABS,ioos:station:wmo:42045:1,2017-12-01T02:00:00Z,26.2168,-96.4998,4.0,6.277786234,95.3931489,7.75,'11111222,11111222,11111222' 
TABS,ioos:station:wmo:42045:1,2017-12-01T02:30:00Z,26.2168,-96.4998,4.0,6.156468143,79.32849577,7.91,'11111222,11111222,11111222' 
TABS,ioos:station:wmo:42045:1,2017-12-01T03:00:00Z,26.2168,-96.4998,4.0,6.304680801,86.08879134,8.14,'11111222,11111222,11111222' 
TABS,ioos:station:wmo:42045:1,2017-12-01T03:30:00Z,26.2168,-96.4998,4.0,6.754628043,87.87848765,7.96,'11111222,11111222,11111222' 
TABS,ioos:station:wmo:42045:1,2017-12-01T04:00:00Z,26.2168,-96.4998,4.0,6.315639318,83.90986239,7.76,'11111222,11111222,11111222' 
TABS,ioos:station:wmo:42045:1,2017-12-01T04:30:00Z,26.2168,-96.4998,4.0,6.139983713,93.26823937,7.99,'11111222,11111222,11111222' 
TABS,ioos:station:wmo:42045:1,2017-12-01T05:00:00Z,26.2168,-96.4998,4.0,5.867418512,99.31823803,7.37,'11111222,11111222,11111222' 
TABS,ioos:station:wmo:42045:1,2017-12-01T05:30:00Z,26.2168,-96.4998,4.0,5.76344515,96.17592408,7.17,'11111222,11111222,11111222' 
TABS,ioos:station:wmo:42045:1,2017-12-01T06:00:00Z,26.2168,-96.4998,4.0,5.329024301,100.4879579,6.58,'11111222,11111222,11111222' 
TABS,ioos:station:wmo:42045:1,2017-12-01T06:30:00Z,26.2168,-96.4998,4.0,5.43953123,102.5291993,6.98,'11111222,11111222,11111222' 
TABS,ioos:station:wmo:42045:1,2017-12-01T07:00:00Z,26.2168,-96.4998,4.0,5.176997199,107.770349,6.73,'11111222,11111222,11111222' 
TABS,ioos:station:wmo:42045:1,2017-12-01T07:30:00Z,26.2168,-96.4998,4.0,5.570897594,111.5916963,7.14,'11111222,11111222,11111222' 
TABS,ioos:station:wmo:42045:1,2017-12-01T08:00:00Z,26.2168,-96.4998,4.0,4.79453856,117.3136315,6.83,'11111222,11111222,11111222' 
TABS,ioos:station:wmo:42045:1,2017-12-01T08:30:00Z,26.2168,-96.4998,4.0,4.301092884,105.232137,5.32,'11111222,11111222,11111222' 
TABS,ioos:station:wmo:42045:1,2017-12-01T09:00:00Z,26.2168,-96.4998,4.0,4.55448131,114.9336571,5.93,'11111222,11111222,11111222' 
TABS,ioos:station:wmo:42045:1,2017-12-01T09:30:00Z,26.2168,-96.4998,4.0,4.588518279,108.1589197,6.37,'11111222,11111222,11111222' 
TABS,ioos:station:wmo:42045:1,2017-12-01T10:00:00Z,26.2168,-96.4998,4.0,4.608340265,103.5541533,6.35,'11111222,11111222,11111222' 
TABS,ioos:station:wmo:42045:1,2017-12-01T10:30:00Z,26.2168,-96.4998,4.0,4.867627759,101.495002,6.43,'11111222,11111222,11111222' 
TABS,ioos:station:wmo:42045:1,2017-12-01T11:00:00Z,26.2168,-96.4998,4.0,5.062430246,104.9974172,6.51,'11111222,11111222,11111222' 
TABS,ioos:station:wmo:42045:1,2017-12-01T11:30:00Z,26.2168,-96.4998,4.0,4.38749359,117.2662392,6.05,'11111222,11111222,11111222' 
TABS,ioos:station:wmo:42045:1,2017-12-01T12:00:00Z,26.2168,-96.4998,4.0,4.604182881,96.98650363,6.01,'11111222,11111222,11111222' 
TABS,ioos:station:wmo:42045:1,2017-12-01T12:30:00Z,26.2168,-96.4998,4.0,5.098166337,94.83871589,6.33,'11111222,11111222,11111222' 
TABS,ioos:station:wmo:42045:1,2017-12-01T13:00:00Z,26.2168,-96.4998,4.0,5.653538715,92.02773888,7.61,'11111222,11111222,11111222' 
TABS,ioos:station:wmo:42045:1,2017-12-01T13:30:00Z,26.2168,-96.4998,4.0,5.879158103,99.99144097,7.26,'11111222,11111222,11111222' 
TABS,ioos:station:wmo:42045:1,2017-12-01T14:00:00Z,26.2168,-96.4998,4.0,5.478722479,98.39671856,6.43,'11111222,11111222,11111222' 
TABS,ioos:station:wmo:42045:1,2017-12-01T14:30:00Z,26.2168,-96.4998,4.0,5.760043403,93.3843971,7.08,'11111222,11111222,11111222' 
TABS,ioos:station:wmo:42045:1,2017-12-01T15:00:00Z,26.2168,-96.4998,4.0,5.902855241,96.90871191,7.27,'11111222,11111222,11111222' 
TABS,ioos:station:wmo:42045:1,2017-12-01T15:30:00Z,26.2168,-96.4998,4.0,5.455061869,98.85835897,6.85,'11111222,11111222,11111222' 
TABS,ioos:station:wmo:42045:1,2017-12-01T16:00:00Z,26.2168,-96.4998,4.0,5.36591092,100.8496263,6.97,'11111222,11111222,11111222' 
TABS,ioos:station:wmo:42045:1,2017-12-01T16:30:00Z,26.2168,-96.4998,4.0,5.385434059,111.2288421,6.88,'11111222,11111222,11111222' 
TABS,ioos:station:wmo:42045:1,2017-12-01T17:00:00Z,26.2168,-96.4998,4.0,4.651892088,108.9416652,6.28,'11111222,11111222,11111222' 
TABS,ioos:station:wmo:42045:1,2017-12-01T17:30:00Z,26.2168,-96.4998,4.0,4.364057745,108.0201481,5.45,'11111222,11111222,11111222' 
TABS,ioos:station:wmo:42045:1,2017-12-01T18:00:00Z,26.2168,-96.4998,4.0,4.261044473,97.95935946,5.37,'11111222,11111222,11111222' 
TABS,ioos:station:wmo:42045:1,2017-12-01T18:30:00Z,26.2168,-96.4998,4.0,3.840117186,97.18093962,4.88,'11111222,11111222,11111222' 
TABS,ioos:station:wmo:42045:1,2017-12-01T19:00:00Z,26.2168,-96.4998,4.0,3.813449882,105.2027941,4.84,'11111222,11111222,11111222' 
TABS,ioos:station:wmo:42045:1,2017-12-01T19:30:00Z,26.2168,-96.4998,4.0,3.749306603,95.81744153,4.87,'11111222,11111222,11111222' 
TABS,ioos:station:wmo:42045:1,2017-12-01T20:00:00Z,26.2168,-96.4998,4.0,4.026474885,101.8963798,5.04,'11111222,11111222,11111222' 
TABS,ioos:station:wmo:42045:1,2017-12-01T20:30:00Z,26.2168,-96.4998,4.0,3.948075481,100.6557107,5.27,'11111222,11111222,11111222' 
TABS,ioos:station:wmo:42045:1,2017-12-01T21:00:00Z,26.2168,-96.4998,4.0,3.974569159,94.90770928,4.84,'11111222,11111222,11111222' 
TABS,ioos:station:wmo:42045:1,2017-12-01T21:30:00Z,26.2168,-96.4998,4.0,4.62835824,102.9857287,5.76,'11111222,11111222,11111222' 
TABS,ioos:station:wmo:42045:1,2017-12-01T22:00:00Z,26.2168,-96.4998,4.0,4.529127951,105.2333135,5.77,'11111222,11111222,11111222' 
TABS,ioos:station:wmo:42045:1,2017-12-01T22:30:00Z,26.2168,-96.4998,4.0,4.88893649,98.11393045,6.13,'11111222,11111222,11111222' 
TABS,ioos:station:wmo:42045:1,2017-12-01T23:00:00Z,26.2168,-96.4998,4.0,4.936243511,101.3330904,5.97,'11111222,11111222,11111222' 
TABS,ioos:station:wmo:42045:1,2017-12-01T23:30:00Z,26.2168,-96.4998,4.0,4.743838109,109.1992233,6.43,'11111222,11111222,11111222' 
TABS,ioos:station:wmo:42045:1,2017-12-02T00:00:00Z,26.2168,-96.4998,4.0,4.721662843,109.1644348,6.19,'11111222,11111222,11111222' 
TABS,ioos:station:wmo:42045:1,2017-12-02T00:30:00Z,26.2168,-96.4998,4.0,4.727589238,115.6981817,6.02,'11111222,11111222,11111222' 
TABS,ioos:station:wmo:42045:1,2017-12-02T01:00:00Z,26.2168,-96.4998,4.0,5.259248996,112.4693891,6.54,'11111222,11111222,11111222' 
TABS,ioos:station:wmo:42045:1,2017-12-02T01:30:00Z,26.2168,-96.4998,4.0,5.075874309,116.56541,6.5,'11111222,11111222,11111222' 
TABS,ioos:station:wmo:42045:1,2017-12-02T02:00:00Z,26.2168,-96.4998,4.0,4.806797271,123.0292083,6.13,'11111222,11111222,11111222' 
TABS,ioos:station:wmo:42045:1,2017-12-02T02:30:00Z,26.2168,-96.4998,4.0,5.146066459,118.5574989,6.12,'11111222,11111222,11111222' 
TABS,ioos:station:wmo:42045:1,2017-12-02T03:00:00Z,26.2168,-96.4998,4.0,4.709331163,135.0003157,6.21,'11111222,11111222,11111222' 
TABS,ioos:station:wmo:42045:1,2017-12-02T03:30:00Z,26.2168,-96.4998,4.0,4.201380725,136.3504681,5.37,'11111222,11111222,11111222' 
TABS,ioos:station:wmo:42045:1,2017-12-02T04:00:00Z,26.2168,-96.4998,4.0,4.426849896,134.2681428,5.34,'11111222,11111222,11111222' 
TABS,ioos:station:wmo:42045:1,2017-12-02T04:30:00Z,26.2168,-96.4998,4.0,4.881516158,136.8265147,6.49,'11111222,11111222,11111222' 
TABS,ioos:station:wmo:42045:1,2017-12-02T05:00:00Z,26.2168,-96.4998,4.0,4.8213691,154.1792789,6.18,'11111222,11111222,11111222' 
TABS,ioos:station:wmo:42045:1,2017-12-02T05:30:00Z,26.2168,-96.4998,4.0,4.312238398,156.3480641,5.88,'11111222,11111222,11111222' 
TABS,ioos:station:wmo:42045:1,2017-12-02T06:00:00Z,26.2168,-96.4998,4.0,4.311531051,152.6626091,5.4,'11111222,11111222,11111222' 
TABS,ioos:station:wmo:42045:1,2017-12-02T06:30:00Z,26.2168,-96.4998,4.0,4.228486727,160.6654471,5.58,'11111222,11111222,11111222' 
TABS,ioos:station:wmo:42045:1,2017-12-02T07:00:00Z,26.2168,-96.4998,4.0,4.570732983,167.3626602,5.8,'11111222,11111222,11111222' 
TABS,ioos:station:wmo:42045:1,2017-12-02T07:30:00Z,26.2168,-96.4998,4.0,4.10487515,160.9473479,5.58,'11111222,11111222,11111222' 
TABS,ioos:station:wmo:42045:1,2017-12-02T08:00:00Z,26.2168,-96.4998,4.0,3.997424171,155.9359058,5.03,'11111222,11111222,11111222' 
TABS,ioos:station:wmo:42045:1,2017-12-02T08:30:00Z,26.2168,-96.4998,4.0,3.554433851,137.9651701,4.47,'11111222,11111222,11111222' 
TABS,ioos:station:wmo:42045:1,2017-12-02T09:00:00Z,26.2168,-96.4998,4.0,3.641977485,141.2422154,4.41,'11111222,11111222,11111222' 
TABS,ioos:station:wmo:42045:1,2017-12-02T09:30:00Z,26.2168,-96.4998,4.0,4.653783407,150.240128,5.77,'11111222,11111222,11111222' 
TABS,ioos:station:wmo:42045:1,2017-12-02T10:00:00Z,26.2168,-96.4998,4.0,4.66858651,155.8508633,5.48,'11111222,11111222,11111222' 
TABS,ioos:station:wmo:42045:1,2017-12-02T10:30:00Z,26.2168,-96.4998,4.0,4.546570136,144.0377773,5.47,'11111222,11111222,11111222' 
TABS,ioos:station:wmo:42045:1,2017-12-02T11:00:00Z,26.2168,-96.4998,4.0,5.415357791,150.2160293,6.33,'11111222,11111222,11111222' 
TABS,ioos:station:wmo:42045:1,2017-12-02T11:30:00Z,26.2168,-96.4998,4.0,4.794163118,153.2214327,5.79,'11111222,11111222,11111222' 
TABS,ioos:station:wmo:42045:1,2017-12-02T12:00:00Z,26.2168,-96.4998,4.0,5.090618823,152.1264097,6.5,'11111222,11111222,11111222' 
TABS,ioos:station:wmo:42045:1,2017-12-02T12:30:00Z,26.2168,-96.4998,4.0,4.790375768,149.7955005,5.68,'11111222,11111222,11111222' 
TABS,ioos:station:wmo:42045:1,2017-12-02T13:00:00Z,26.2168,-96.4998,4.0,4.153131349,147.6878074,5.25,'11111222,11111222,11111222' 
TABS,ioos:station:wmo:42045:1,2017-12-02T13:30:00Z,26.2168,-96.4998,4.0,4.46968679,158.198852,5.84,'11111222,11111222,11111222' 
TABS,ioos:station:wmo:42045:1,2017-12-02T14:00:00Z,26.2168,-96.4998,4.0,4.310104407,157.7792016,5.41,'11111222,11111222,11111222' 
TABS,ioos:station:wmo:42045:1,2017-12-02T14:30:00Z,26.2168,-96.4998,4.0,4.243218118,157.8478108,5.31,'11111222,11111222,11111222' 
TABS,ioos:station:wmo:42045:1,2017-12-02T15:00:00Z,26.2168,-96.4998,4.0,4.104680256,157.0582749,5.27,'11111222,11111222,11111222' 
TABS,ioos:station:wmo:42045:1,2017-12-02T15:30:00Z,26.2168,-96.4998,4.0,4.139770525,160.8212473,5.25,'11111222,11111222,11111222' 
TABS,ioos:station:wmo:42045:1,2017-12-02T16:00:00Z,26.2168,-96.4998,4.0,4.309477927,159.6309448,5.61,'11111222,11111222,11111222' 
TABS,ioos:station:wmo:42045:1,2017-12-02T16:30:00Z,26.2168,-96.4998,4.0,4.697030977,156.273102,5.69,'11111222,11111222,11111222' 
TABS,ioos:station:wmo:42045:1,2017-12-02T17:00:00Z,26.2168,-96.4998,4.0,5.756266151,152.5894264,6.98,'11111222,11111222,11111222' 
TABS,ioos:station:wmo:42045:1,2017-12-02T17:30:00Z,26.2168,-96.4998,4.0,4.210106887,164.1483194,5.57,'11111222,11111222,11111222' 
TABS,ioos:station:wmo:42045:1,2017-12-02T18:00:00Z,26.2168,-96.4998,4.0,3.83,180.0002105,4.58,'11111222,11111222,11111222' 
TABS,ioos:station:wmo:42045:1,2017-12-02T18:30:00Z,26.2168,-96.4998,4.0,2.96529931,191.082754,3.69,'11111222,11111222,11111222' 
TABS,ioos:station:wmo:42045:1,2017-12-02T19:00:00Z,26.2168,-96.4998,4.0,2.67,180.0002105,3.27,'11111222,11111222,11111222' 
TABS,ioos:station:wmo:42045:1,2017-12-02T19:30:00Z,26.2168,-96.4998,4.0,2.947490458,175.9146032,3.6,'11111222,11111222,11111222' 
TABS,ioos:station:wmo:42045:1,2017-12-02T20:00:00Z,26.2168,-96.4998,4.0,3.475701368,174.5520767,4.23,'11111222,11111222,11111222' 
TABS,ioos:station:wmo:42045:1,2017-12-02T20:30:00Z,26.2168,-96.4998,4.0,3.742258676,178.0094521,4.6,'11111222,11111222,11111222' 
TABS,ioos:station:wmo:42045:1,2017-12-02T21:00:00Z,26.2168,-96.4998,4.0,3.867738357,174.5107345,4.74,'11111222,11111222,11111222' 
TABS,ioos:station:wmo:42045:1,2017-12-02T21:30:00Z,26.2168,-96.4998,4.0,3.428614881,167.7070661,4.0,'11111222,11111222,11111222' 
TABS,ioos:station:wmo:42045:1,2017-12-02T22:00:00Z,26.2168,-96.4998,4.0,3.381198013,166.6626926,4.01,'11111222,11111222,11111222' 
TABS,ioos:station:wmo:42045:1,2017-12-02T22:30:00Z,26.2168,-96.4998,4.0,3.538997033,160.6949285,4.26,'11111222,11111222,11111222' 
TABS,ioos:station:wmo:42045:1,2017-12-02T23:00:00Z,26.2168,-96.4998,4.0,4.358726878,159.0288118,5.13,'11111222,11111222,11111222' 
TABS,ioos:station:wmo:42045:1,2017-12-02T23:30:00Z,26.2168,-96.4998,4.0,4.574232176,160.0599565,5.54,'11111222,11111222,11111222' 
TABS,ioos:station:wmo:42045:1,2017-12-03T00:00:00Z,26.2168,-96.4998,4.0,4.182403615,154.6606098,5.07,'11111222,11111222,11111222' 
TABS,ioos:station:wmo:42045:1,2017-12-03T00:30:00Z,26.2168,-96.4998,4.0,3.344144136,150.8291861,4.12,'11111222,11111222,11111222' 
TABS,ioos:station:wmo:42045:1,2017-12-03T01:00:00Z,26.2168,-96.4998,4.0,4.139685978,151.2683118,5.49,'11111222,11111222,11111222' 
TABS,ioos:station:wmo:42045:1,2017-12-03T01:30:00Z,26.2168,-96.4998,4.0,3.642471688,151.4651406,4.52,'11111222,11111222,11111222' 
TABS,ioos:station:wmo:42045:1,2017-12-03T02:00:00Z,26.2168,-96.4998,4.0,3.869431483,152.1107026,4.58,'11111222,11111222,11111222' 
TABS,ioos:station:wmo:42045:1,2017-12-03T02:30:00Z,26.2168,-96.4998,4.0,3.766430671,163.9712696,4.52,'11111222,11111222,11111222' 
TABS,ioos:station:wmo:42045:1,2017-12-03T03:00:00Z,26.2168,-96.4998,4.0,3.403659795,167.2705877,4.12,'11111222,11111222,11111222' 
TABS,ioos:station:wmo:42045:1,2017-12-03T03:30:00Z,26.2168,-96.4998,4.0,4.560010965,180.1258586,5.56,'11111222,11111222,11111222' 
TABS,ioos:station:wmo:42045:1,2017-12-03T04:00:00Z,26.2168,-96.4998,4.0,5.13439383,191.0037256,6.34,'11111222,11111222,11111222' 
TABS,ioos:station:wmo:42045:1,2017-12-03T04:30:00Z,26.2168,-96.4998,4.0,4.390284729,179.3476687,5.44,'11111222,11111222,11111222' 
TABS,ioos:station:wmo:42045:1,2017-12-03T05:00:00Z,26.2168,-96.4998,4.0,4.640366365,183.8307029,5.58,'11111222,11111222,11111222' 
TABS,ioos:station:wmo:42045:1,2017-12-03T05:30:00Z,26.2168,-96.4998,4.0,5.042866248,178.0683517,6.07,'11111222,11111222,11111222' 
TABS,ioos:station:wmo:42045:1,2017-12-03T06:00:00Z,26.2168,-96.4998,4.0,5.47014625,179.581237,6.44,'11111222,11111222,11111222' 
TABS,ioos:station:wmo:42045:1,2017-12-03T06:30:00Z,26.2168,-96.4998,4.0,5.54436651,182.2742939,6.54,'11111222,11111222,11111222' 
TABS,ioos:station:wmo:42045:1,2017-12-03T07:00:00Z,26.2168,-96.4998,4.0,4.908696365,186.1985987,6.06,'11111222,11111222,11111222' 
TABS,ioos:station:wmo:42045:1,2017-12-03T07:30:00Z,26.2168,-96.4998,4.0,5.515523547,185.5143961,6.77,'11111222,11111222,11111222' 
TABS,ioos:station:wmo:42045:1,2017-12-03T08:00:00Z,26.2168,-96.4998,4.0,5.911793298,189.5421763,7.13,'11111222,11111222,11111222' 
TABS,ioos:station:wmo:42045:1,2017-12-03T08:30:00Z,26.2168,-96.4998,4.0,5.549099026,192.3833982,7.06,'11111222,11111222,11111222' 
TABS,ioos:station:wmo:42045:1,2017-12-03T09:00:00Z,26.2168,-96.4998,4.0,4.979407595,191.4680797,6.13,'11111222,11111222,11111222' 
TABS,ioos:station:wmo:42045:1,2017-12-03T09:30:00Z,26.2168,-96.4998,4.0,5.643837347,193.839445,6.6,'11111222,11111222,11111222' 
TABS,ioos:station:wmo:42045:1,2017-12-03T10:00:00Z,26.2168,-96.4998,4.0,5.205573936,197.6693633,6.02,'11111222,11111222,11111222' 
TABS,ioos:station:wmo:42045:1,2017-12-03T10:30:00Z,26.2168,-96.4998,4.0,5.96158536,193.7800143,6.92,'11111222,11111222,11111222' 
TABS,ioos:station:wmo:42045:1,2017-12-03T11:00:00Z,26.2168,-96.4998,4.0,5.874368051,200.841599,7.0,'11111222,11111222,11111222' 
TABS,ioos:station:wmo:42045:1,2017-12-03T11:30:00Z,26.2168,-96.4998,4.0,5.711996148,201.8947022,6.95,'11111222,11111222,11111222' 
TABS,ioos:station:wmo:42045:1,2017-12-03T12:00:00Z,26.2168,-96.4998,4.0,5.467723475,202.8134792,6.55,'11111222,11111222,11111222' 
TABS,ioos:station:wmo:42045:1,2017-12-03T12:30:00Z,26.2168,-96.4998,4.0,4.991372557,197.1282179,5.98,'11111222,11111222,11111222' 
TABS,ioos:station:wmo:42045:1,2017-12-03T13:00:00Z,26.2168,-96.4998,4.0,5.106515446,203.3018758,6.05,'11111222,11111222,11111222' 
TABS,ioos:station:wmo:42045:1,2017-12-03T13:30:00Z,26.2168,-96.4998,4.0,5.834732213,202.2574445,6.96,'11111222,11111222,11111222' 
TABS,ioos:station:wmo:42045:1,2017-12-03T14:00:00Z,26.2168,-96.4998,4.0,5.38360474,203.4223384,6.43,'11111222,11111222,11111222' 
TABS,ioos:station:wmo:42045:1,2017-12-03T14:30:00Z,26.2168,-96.4998,4.0,5.556302728,201.2079522,6.59,'11111222,11111222,11111222' 
TABS,ioos:station:wmo:42045:1,2017-12-03T15:00:00Z,26.2168,-96.4998,4.0,6.05594749,197.9863344,7.17,'11111222,11111222,11111222' 
TABS,ioos:station:wmo:42045:1,2017-12-03T15:30:00Z,26.2168,-96.4998,4.0,6.681466905,195.450841,8.02,'11111222,11111222,11111222' 
TABS,ioos:station:wmo:42045:1,2017-12-03T16:00:00Z,26.2168,-96.4998,4.0,6.320664522,194.4761335,8.26,'11111222,11111222,11111222' 
TABS,ioos:station:wmo:42045:1,2017-12-03T16:30:00Z,26.2168,-96.4998,4.0,6.91763688,194.7395231,8.27,'11111222,11111222,11111222' 
TABS,ioos:station:wmo:42045:1,2017-12-03T17:00:00Z,26.2168,-96.4998,4.0,5.897228162,191.4434949,7.19,'11111222,11111222,11111222' 
TABS,ioos:station:wmo:42045:1,2017-12-03T17:30:00Z,26.2168,-96.4998,4.0,6.351519503,197.1227961,7.89,'11111222,11111222,11111222' 
TABS,ioos:station:wmo:42045:1,2017-12-03T18:00:00Z,26.2168,-96.4998,4.0,6.978208939,194.6935895,8.29,'11111222,11111222,11111222' 
TABS,ioos:station:wmo:42045:1,2017-12-03T18:30:00Z,26.2168,-96.4998,4.0,6.660187685,194.4328522,7.91,'11111222,11111222,11111222' 
TABS,ioos:station:wmo:42045:1,2017-12-03T19:00:00Z,26.2168,-96.4998,4.0,6.653750822,195.8746001,8.08,'11111222,11111222,11111222' 
TABS,ioos:station:wmo:42045:1,2017-12-03T19:30:00Z,26.2168,-96.4998,4.0,7.052921381,200.4135868,8.64,'11111222,11111222,11111222' 
TABS,ioos:station:wmo:42045:1,2017-12-03T20:00:00Z,26.2168,-96.4998,4.0,6.946783428,199.9480374,8.37,'11111222,11111222,11111222' 
TABS,ioos:station:wmo:42045:1,2017-12-03T20:30:00Z,26.2168,-96.4998,4.0,6.948093264,196.5572431,8.31,'11111222,11111222,11111222' 
TABS,ioos:station:wmo:42045:1,2017-12-03T21:00:00Z,26.2168,-96.4998,4.0,6.82738603,196.6833394,7.94,'11111222,11111222,11111222' 
TABS,ioos:station:wmo:42045:1,2017-12-03T21:30:00Z,26.2168,-96.4998,4.0,6.566231796,197.2761138,7.79,'11111222,11111222,11111222' 
TABS,ioos:station:wmo:42045:1,2017-12-03T22:00:00Z,26.2168,-96.4998,4.0,6.906011874,195.0224448,8.08,'11111222,11111222,11111222' 
TABS,ioos:station:wmo:42045:1,2017-12-03T22:30:00Z,26.2168,-96.4998,4.0,6.309144157,191.6128883,7.88,'11111222,11111222,11111222' 
TABS,ioos:station:wmo:42045:1,2017-12-03T23:00:00Z,26.2168,-96.4998,4.0,6.267886406,188.440556,7.71,'11111222,11111222,11111222' 
TABS,ioos:station:wmo:42045:1,2017-12-03T23:30:00Z,26.2168,-96.4998,4.0,6.604922407,187.3942018,7.66,'11111222,11111222,11111222' 
TABS,ioos:station:wmo:42045:1,2017-12-04T00:00:00Z,26.2168,-96.4998,4.0,7.282760466,185.4368003,8.89,'11111222,11111222,11111222' 
TABS,ioos:station:wmo:42045:1,2017-12-04T00:30:00Z,26.2168,-96.4998,4.0,7.501053259,187.8926435,9.17,'11111222,11111222,11111222' 
TABS,ioos:station:wmo:42045:1,2017-12-04T01:00:00Z,26.2168,-96.4998,4.0,8.012839696,189.6270852,9.72,'11111222,11111222,11111222' 
TABS,ioos:station:wmo:42045:1,2017-12-04T01:30:00Z,26.2168,-96.4998,4.0,8.290259345,188.4626087,10.04,'11111222,11111222,11111222' 
TABS,ioos:station:wmo:42045:1,2017-12-04T02:00:00Z,26.2168,-96.4998,4.0,7.129242597,188.5508256,8.67,'11111222,11111222,11111222' 
TABS,ioos:station:wmo:42045:1,2017-12-04T02:30:00Z,26.2168,-96.4998,4.0,6.652593479,191.884405,8.55,'11111222,11111222,11111222' 
TABS,ioos:station:wmo:42045:1,2017-12-04T03:00:00Z,26.2168,-96.4998,4.0,7.020975716,192.6706123,8.46,'11111222,11111222,11111222' 
TABS,ioos:station:wmo:42045:1,2017-12-04T03:30:00Z,26.2168,-96.4998,4.0,7.160398034,188.5942618,8.52,'11111222,11111222,11111222' 
TABS,ioos:station:wmo:42045:1,2017-12-04T04:00:00Z,26.2168,-96.4998,4.0,7.544441663,189.075468,9.17,'11111222,11111222,11111222' 
TABS,ioos:station:wmo:42045:1,2017-12-04T04:30:00Z,26.2168,-96.4998,4.0,7.421219576,189.9321365,9.22,'11111222,11111222,11111222' 
TABS,ioos:station:wmo:42045:1,2017-12-04T05:00:00Z,26.2168,-96.4998,4.0,7.408373641,192.9484224,9.21,'11111222,11111222,11111222' 
TABS,ioos:station:wmo:42045:1,2017-12-04T05:30:00Z,26.2168,-96.4998,4.0,7.649797383,195.5443312,9.47,'11111222,11111222,11111222' 
TABS,ioos:station:wmo:42045:1,2017-12-04T06:00:00Z,26.2168,-96.4998,4.0,7.739676996,194.5930206,9.42,'11111222,11111222,11111222' 
TABS,ioos:station:wmo:42045:1,2017-12-04T06:30:00Z,26.2168,-96.4998,4.0,8.17720001,196.2631798,10.05,'11111222,11111222,11111222' 
TABS,ioos:station:wmo:42045:1,2017-12-04T07:00:00Z,26.2168,-96.4998,4.0,8.150981536,195.8779807,9.41,'11111222,11111222,11111222' 
TABS,ioos:station:wmo:42045:1,2017-12-04T07:30:00Z,26.2168,-96.4998,4.0,7.894460083,196.483915,9.34,'11111222,11111222,11111222' 
TABS,ioos:station:wmo:42045:1,2017-12-04T08:00:00Z,26.2168,-96.4998,4.0,7.558438992,199.1542706,9.59,'11111222,11111222,11111222' 
TABS,ioos:station:wmo:42045:1,2017-12-04T08:30:00Z,26.2168,-96.4998,4.0,7.209438258,195.1158883,8.64,'11111222,11111222,11111222' 
TABS,ioos:station:wmo:42045:1,2017-12-04T09:00:00Z,26.2168,-96.4998,4.0,7.534036103,192.3392689,9.13,'11111222,11111222,11111222' 
TABS,ioos:station:wmo:42045:1,2017-12-04T09:30:00Z,26.2168,-96.4998,4.0,7.830159641,192.3146967,9.09,'11111222,11111222,11111222' 
TABS,ioos:station:wmo:42045:1,2017-12-04T10:00:00Z,26.2168,-96.4998,4.0,7.645129168,200.5211215,9.33,'11111222,11111222,11111222' 
TABS,ioos:station:wmo:42045:1,2017-12-04T10:30:00Z,26.2168,-96.4998,4.0,7.707619607,195.4248067,9.23,'11111222,11111222,11111222' 
TABS,ioos:station:wmo:42045:1,2017-12-04T11:00:00Z,26.2168,-96.4998,4.0,7.264227419,191.0316841,9.37,'11111222,11111222,11111222' 
TABS,ioos:station:wmo:42045:1,2017-12-04T11:30:00Z,26.2168,-96.4998,4.0,8.56635862,194.052643,10.64,'11111222,11111222,11111222' 
TABS,ioos:station:wmo:42045:1,2017-12-04T12:00:00Z,26.2168,-96.4998,4.0,8.905868851,200.1646546,10.45,'11111222,11111222,11111222' 
TABS,ioos:station:wmo:42045:1,2017-12-04T12:30:00Z,26.2168,-96.4998,4.0,8.534406834,196.3328828,10.09,'11111222,11111222,11111222' 
TABS,ioos:station:wmo:42045:1,2017-12-04T13:00:00Z,26.2168,-96.4998,4.0,8.788589193,197.7547752,10.95,'11111222,11111222,11111222' 
TABS,ioos:station:wmo:42045:1,2017-12-04T13:30:00Z,26.2168,-96.4998,4.0,9.900126262,196.5497466,12.3,'11111222,11111222,11111222' 
TABS,ioos:station:wmo:42045:1,2017-12-04T14:00:00Z,26.2168,-96.4998,4.0,9.722026538,197.5405269,12.04,'11111222,11111222,11111222' 
TABS,ioos:station:wmo:42045:1,2017-12-04T14:30:00Z,26.2168,-96.4998,4.0,8.826380912,196.7926803,11.07,'11111222,11111222,11111222' 
TABS,ioos:station:wmo:42045:1,2017-12-04T15:00:00Z,26.2168,-96.4998,4.0,9.129211357,200.5194796,11.04,'11111222,11111222,11111222' 
TABS,ioos:station:wmo:42045:1,2017-12-04T15:30:00Z,26.2168,-96.4998,4.0,8.432609323,201.4230523,10.63,'11111222,11111222,11111222' 
TABS,ioos:station:wmo:42045:1,2017-12-04T16:00:00Z,26.2168,-96.4998,4.0,8.516296143,202.2888076,10.36,'11111222,11111222,11111222' 
TABS,ioos:station:wmo:42045:1,2017-12-04T16:30:00Z,26.2168,-96.4998,4.0,8.223363059,200.3523384,9.79,'11111222,11111222,11111222' 
TABS,ioos:station:wmo:42045:1,2017-12-04T17:00:00Z,26.2168,-96.4998,4.0,8.49659932,199.8853291,10.62,'11111222,11111222,11111222' 
TABS,ioos:station:wmo:42045:1,2017-12-04T17:30:00Z,26.2168,-96.4998,4.0,8.150828179,205.1189647,10.04,'11111222,11111222,11111222' 
TABS,ioos:station:wmo:42045:1,2017-12-04T18:00:00Z,26.2168,-96.4998,4.0,7.000457128,214.0533997,8.97,'11111222,11111222,11111222' 
TABS,ioos:station:wmo:42045:1,2017-12-04T18:30:00Z,26.2168,-96.4998,4.0,7.041945754,213.532236,8.21,'11111222,11111222,11111222' 